Printer-friendly version

IAU Minor Planet Center

Minor Planet Center

MPEC 2006-T03 : 2006 OU10

The following Minor Planet Electronic Circular may be linked-to from your own Web pages, but must not otherwise be redistributed electronically.


Read MPEC 2006-T02 Read MPEC 2006-T04


M.P.E.C. 2006-T03                                Issued 2006 Oct. 2, 12:52 UT

     The Minor Planet Electronic Circulars contain information on unusual
         minor planets and routine data on comets.  They are published
   on behalf of Commission 20 of the International Astronomical Union by the
          Minor Planet Center, Smithsonian Astrophysical Observatory,
                          Cambridge, MA 02138, U.S.A.

             Prepared using the Tamkin Foundation Computer Network

                              MPC@CFA.HARVARD.EDU
          URL http://cfa-www.harvard.edu/iau/mpc.html  ISSN 1523-6714

                                   2006 OU10

Additional Observations:
     K06O10U  C2006 09 30.10911 22 06 30.42 +03 50 00.2          20.7 V ET003691
     K06O10U  C2006 09 30.12759 22 06 28.87 +03 50 01.8          21.0 V ET003691
     K06O10U  C2006 09 30.14608 22 06 27.35 +03 50 02.9          21.0 V ET003691
     K06O10U  C2006 09 30.28003 22 06 16.30 +03 50 11.6          20.4 V ET003291
     K06O10U  C2006 09 30.28376 22 06 15.91 +03 50 12.2          20.3 V ET003291
     K06O10U HC2006 09 30.29158 22 06 15.33 +03 50 13.1                 ET003291
     K06O10U  C2006 10 01.13050 22 05 08.72 +03 51 09.9                 ET003291
     K06O10U  C2006 10 01.13219 22 05 08.47 +03 51 08.9          21.1 R ET003734
     K06O10U  C2006 10 01.13473 22 05 08.41 +03 51 10.0                 ET003291
     K06O10U  C2006 10 01.13803 22 05 07.94 +03 51 09.7          21.0 R ET003734
     K06O10U  C2006 10 01.13838 22 05 08.12 +03 51 10.5                 ET003291
     K06O10U  C2006 10 01.14388 22 05 07.46 +03 51 11.7          20.3 R ET003734
     K06O10U  C2006 10 01.16089 22 05 06.19 +03 51 11.7          21.6 R ET003734
     K06O10U  C2006 10 02.10380 22 03 53.13 +03 52 14.4          20.5 V ET003G96
     K06O10U  C2006 10 02.10975 22 03 52.66 +03 52 15.0          21.4 V ET003G96
     K06O10U  C2006 10 02.11559 22 03 52.23 +03 52 14.5          20.9 V ET003G96
     K06O10U  C2006 10 02.12148 22 03 51.73 +03 52 16.0          21.6 V ET003G96
     K06O10U HC2006 10 02.18187 22 03 47.07 +03 52 20.3                 ET003291
     K06O10U  C2006 10 02.18568 22 03 46.79 +03 52 20.7                 ET003291
     K06O10U HC2006 10 02.19350 22 03 46.13 +03 52 21.3                 ET003291

Observer details:
291 LPL/Spacewatch II.  Observers T. H. Bressi, M. T. Read, A. F. Tubbiolo.
    1.8-m f/2.7 reflector + CCD.
691 Steward Observatory, Kitt Peak.  Observer T. H. Bressi.  0.9-m f/3
    reflector + CCD.
734 Farpoint Observatory.  Observer G. Hug.  Measurer D. Tibbets.  0.7-m
    reflector + CCD.
G96 Mt. Lemmon Survey.  Observer E. C. Beshore.  Measurers E. C. Beshore,
    E. J. Christensen, G. J. Garradd, A. R. Gibbs, A. D. Grauer, R. E. Hill,
    R. A. Kowalski, S. M. Larson, R. H. McNaught.  1.5-m reflector + CCD.

Orbital elements:
2006 OU10                                                Earth MOID = 0.1518 AU
Epoch 2006 Sept. 22.0 TT = JDT 2454000.5                MPC
M 219.12618              (2000.0)            P               Q
n   0.42412921     Peri.  173.34212     -0.86207920     -0.45062047
a   1.7544349      Node   335.30034     +0.43560368     -0.42509236
e   0.3495688      Incl.   33.70251     +0.25897662     -0.78500808
P   2.32           H   17.8           G   0.15           U   5
Residuals in seconds of arc
060725 G96  0.6+  0.4-    060727 568  0.0   0.0     061001 291  0.3+  0.1+
060725 G96  0.4-  0.1+    060930 691  0.2-  0.1-    061001 734  1.4-  1.6+
060725 G96  0.3-  0.3-    060930 691  0.5-  0.2+    061001 734  0.1+  0.4+
060725 G96  0.4-  0.3+    060930 691  0.2-  0.0     061002 G96  0.7-  0.6-
060725 G96  0.9+  0.5+    060930 291  0.9+  0.5-    061002 G96  0.8-  0.4-
060725 G96  0.2-  0.1+    060930 291  0.3-  0.1-    061002 G96  0.4-  1.3-
060725 G96  0.4+  0.2-    060930 291  0.7+  0.3+    061002 G96  0.9-  0.2-
060726 568  0.1-  0.0     061001 291  0.2-  0.1+    061002 291  0.3+  0.0
060726 568  0.1-  0.0     061001 734  0.5-  0.4-    061002 291  0.6+  0.1+
060726 568  0.1+  0.0     061001 291  0.2+  0.1-    061002 291  0.1-  0.2+
060727 568  0.0   0.0     061001 734  1.3-  0.0

Ephemeris:
2006 OU10                a,e,i = 1.75, 0.35, 34                  q = 1.1411
Date    TT    R. A. (2000) Decl.     Delta      r     Elong.  Phase     V
2006 10 02    22 04.02   +03 52.2    1.389    2.271   143.2    15.3    21.1
2006 10 12    21 53.21   +04 03.5    1.463    2.251   131.5    19.4    21.4
2006 10 22    21 46.52   +04 17.8    1.553    2.230   120.5    22.6    21.6
2006 11 01    21 43.80   +04 39.0    1.653    2.206   110.5    24.9    21.8
2006 11 11    21 44.64   +05 09.4    1.759    2.181   101.3    26.4    21.9
2006 11 21    21 48.55   +05 50.3    1.865    2.154    92.9    27.3    22.0

Timothy B. Spahr             (C) Copyright 2006 MPC           M.P.E.C. 2006-T03

Read MPEC 2006-T02 Read MPEC 2006-T04


Our Web policy. Index to the CBAT/MPC/ICQ pages.


Valid HTML 4.01!